When you browse on this site, cookies collect data to enhance your experience and personalize the content and advertising you see.
Visit our Privacy Policy to learn more. By continuing to use the site, you agree to this use of cookies and data.
  • In Deutschland
  • Länderverzeichnis
  • Für 7 Tage
  • Wassertemperatur
  • Wetterkarte
  • Widgets
  • user-avatar
    Anmelden

    Stündliche Wetter Malanje

    Heute, 16 September, Montag

    Zeit Temperatur Niederschläge Wind Luftdruck Luftfeuchtigkeit
    00:00 +24°C° 0 mm 2 m/S 665 mmHg 65%
    01:00 +23°C° 0 mm 2 m/S 665 mmHg 75%
    02:00 +21°C° 0 mm 2 m/S 665 mmHg 78%
    03:00 +22°C° 0 mm 1 m/S 664 mmHg 80%
    04:00 +19°C° 0 mm 0 m/S 664 mmHg 83%
    05:00 +20°C° 0 mm 0 m/S 665 mmHg 80%
    06:00 +20°C° 0 mm 0 m/S 665 mmHg 77%
    07:00 +20°C° 0 mm 0 m/S 666 mmHg 74%
    08:00 +24°C° 0 mm 0 m/S 667 mmHg 61%
    09:00 +28°C° 0 mm 0 m/S 668 mmHg 48%
    10:00 +32°C° 0 mm 0 m/S 669 mmHg 35%
    11:00 +34°C° 0 mm 1 m/S 668 mmHg 34%
    12:00 +35°C° 0 mm 2 m/S 667 mmHg 33%
    13:00 +35°C° 0 mm 3 m/S 666 mmHg 32%
    14:00 +34°C° 1.2 mm 2 m/S 665 mmHg 36%
    15:00 +31°C° 1.2 mm 2 m/S 665 mmHg 41%
    16:00 +30°C° 1.2 mm 2 m/S 664 mmHg 46%
    17:00 +28°C° 0.6 mm 2 m/S 665 mmHg 51%
    18:00 +27°C° 0.6 mm 2 m/S 665 mmHg 57%
    19:00 +25°C° 0.6 mm 3 m/S 665 mmHg 62%
    20:00 +25°C° 0.5 mm 2 m/S 666 mmHg 66%
    21:00 +24°C° 0.5 mm 2 m/S 666 mmHg 70%
    22:00 +23°C° 0.5 mm 1 m/S 666 mmHg 73%
    23:00 +23°C° 0 mm 1 m/S 665 mmHg 76%

    Morgen, 17 September, Dienstag

    Zeit Temperatur Niederschläge Wind Luftdruck Luftfeuchtigkeit
    00:00 +23°C° 0 mm 2 m/S 665 mmHg 78%
    01:00 +21°C° 0 mm 2 m/S 664 mmHg 81%
    02:00 +21°C° 0 mm 2 m/S 664 mmHg 84%
    03:00 +21°C° 0 mm 1 m/S 664 mmHg 87%
    04:00 +21°C° 0 mm 1 m/S 664 mmHg 90%
    05:00 +21°C° 0 mm 1 m/S 664 mmHg 88%
    06:00 +22°C° 0 mm 1 m/S 665 mmHg 85%
    07:00 +22°C° 0 mm 1 m/S 665 mmHg 82%
    08:00 +26°C° 0 mm 1 m/S 666 mmHg 69%
    09:00 +29°C° 0 mm 1 m/S 667 mmHg 55%
    10:00 +33°C° 0 mm 1 m/S 667 mmHg 41%
    11:00 +34°C° 0 mm 1 m/S 666 mmHg 37%
    12:00 +35°C° 0 mm 1 m/S 666 mmHg 32%
    13:00 +36°C° 0 mm 1 m/S 665 mmHg 28%
    14:00 +34°C° 0 mm 1 m/S 664 mmHg 31%
    15:00 +32°C° 0 mm 2 m/S 664 mmHg 35%
    16:00 +31°C° 0 mm 2 m/S 663 mmHg 39%
    17:00 +30°C° 0 mm 2 m/S 663 mmHg 41%
    18:00 +29°C° 0 mm 2 m/S 663 mmHg 43%
    19:00 +28°C° 0 mm 2 m/S 664 mmHg 45%
    20:00 +27°C° 0 mm 3 m/S 664 mmHg 50%
    21:00 +26°C° 0 mm 3 m/S 664 mmHg 55%
    22:00 +25°C° 0 mm 3 m/S 665 mmHg 61%
    23:00 +24°C° 0 mm 3 m/S 664 mmHg 65%

    übermorgen, 18 September, Mittwoch

    Zeit Temperatur Niederschläge Wind Luftdruck Luftfeuchtigkeit
    00:00 +22°C° 0 mm 3 m/S 664 mmHg 69%
    01:00 +21°C° 0 mm 3 m/S 664 mmHg 74%
    02:00 +21°C° 0 mm 3 m/S 664 mmHg 76%
    03:00 +20°C° 0 mm 3 m/S 664 mmHg 78%
    04:00 +19°C° 0 mm 3 m/S 664 mmHg 81%
    05:00 +20°C° 0 mm 3 m/S 664 mmHg 79%
    06:00 +20°C° 0 mm 3 m/S 664 mmHg 77%
    07:00 +20°C° 0 mm 3 m/S 665 mmHg 76%
    08:00 +24°C° 0 mm 3 m/S 665 mmHg 65%
    09:00 +27°C° 0 mm 2 m/S 666 mmHg 54%
    10:00 +30°C° 0 mm 2 m/S 666 mmHg 43%
    11:00 +32°C° 0 mm 2 m/S 666 mmHg 37%
    12:00 +35°C° 0 mm 1 m/S 666 mmHg 32%
    13:00 +37°C° 0 mm 1 m/S 666 mmHg 26%
    14:00 +35°C° 0 mm 1 m/S 665 mmHg 30%
    15:00 +34°C° 0 mm 2 m/S 664 mmHg 35%
    16:00 +31°C° 0 mm 2 m/S 663 mmHg 39%
    17:00 +30°C° 0 mm 2 m/S 664 mmHg 41%
    18:00 +29°C° 0 mm 3 m/S 664 mmHg 42%
    19:00 +28°C° 0 mm 3 m/S 664 mmHg 44%
    20:00 +27°C° 0 mm 3 m/S 665 mmHg 47%
    21:00 +26°C° 0 mm 3 m/S 665 mmHg 51%
    22:00 +25°C° 0 mm 3 m/S 665 mmHg 54%
    23:00 +24°C° 0 mm 3 m/S 665 mmHg 60%

    19 September, Donnerstag

    Zeit Temperatur Niederschläge Wind Luftdruck Luftfeuchtigkeit
    00:00 +22°C° 0 mm 3 m/S 664 mmHg 66%
    01:00 +21°C° 0 mm 3 m/S 664 mmHg 72%
    02:00 +20°C° 0 mm 3 m/S 664 mmHg 74%
    03:00 +20°C° 0 mm 3 m/S 664 mmHg 76%
    04:00 +19°C° 0 mm 3 m/S 664 mmHg 78%
    05:00 +19°C° 0 mm 3 m/S 665 mmHg 77%
    06:00 +20°C° 0 mm 3 m/S 665 mmHg 76%
    07:00 +20°C° 0 mm 2 m/S 665 mmHg 76%
    08:00 +24°C° 0 mm 2 m/S 666 mmHg 63%
    09:00 +27°C° 0 mm 2 m/S 667 mmHg 51%
    10:00 +30°C° 0 mm 2 m/S 667 mmHg 39%
    11:00 +31°C° 0 mm 2 m/S 667 mmHg 36%
    12:00 +34°C° 0 mm 2 m/S 666 mmHg 32%
    13:00 +36°C° 0 mm 2 m/S 666 mmHg 29%
    14:00 +34°C° 0 mm 1 m/S 666 mmHg 29%
    15:00 +34°C° 0 mm 1 m/S 665 mmHg 29%
    16:00 +33°C° 0 mm 1 m/S 665 mmHg 29%
    17:00 +32°C° 0 mm 1 m/S 665 mmHg 33%
    18:00 +30°C° 0 mm 2 m/S 665 mmHg 38%
    19:00 +28°C° 0 mm 3 m/S 665 mmHg 43%
    20:00 +27°C° 0 mm 3 m/S 665 mmHg 45%
    21:00 +26°C° 0 mm 3 m/S 665 mmHg 47%
    22:00 +25°C° 0 mm 3 m/S 665 mmHg 50%
    23:00 +24°C° 0 mm 3 m/S 665 mmHg 58%

    20 September, Freitag

    Zeit Temperatur Niederschläge Wind Luftdruck Luftfeuchtigkeit
    00:00 +22°C° 0 mm 3 m/S 665 mmHg 65%
    01:00 +20°C° 0 mm 3 m/S 664 mmHg 73%
    02:00 +20°C° 0 mm 3 m/S 664 mmHg 74%
    03:00 +19°C° 0 mm 3 m/S 665 mmHg 75%
    04:00 +18°C° 0 mm 3 m/S 665 mmHg 76%
    05:00 +18°C° 0 mm 3 m/S 665 mmHg 75%
    06:00 +19°C° 0 mm 3 m/S 666 mmHg 74%
    07:00 +19°C° 0 mm 3 m/S 666 mmHg 73%
    08:00 +22°C° 0 mm 3 m/S 666 mmHg 62%
    09:00 +26°C° 0 mm 3 m/S 667 mmHg 52%
    10:00 +29°C° 0 mm 3 m/S 667 mmHg 41%
    11:00 +31°C° 0 mm 3 m/S 667 mmHg 37%
    12:00 +34°C° 0 mm 2 m/S 666 mmHg 32%
    13:00 +36°C° 0 mm 2 m/S 666 mmHg 28%
    14:00 +35°C° 0 mm 2 m/S 665 mmHg 28%
    15:00 +34°C° 0 mm 2 m/S 665 mmHg 29%
    16:00 +34°C° 0 mm 2 m/S 664 mmHg 29%
    17:00 +31°C° 0 mm 3 m/S 664 mmHg 32%
    18:00 +30°C° 0 mm 3 m/S 664 mmHg 36%
    19:00 +28°C° 0 mm 3 m/S 664 mmHg 39%
    20:00 +27°C° 0 mm 3 m/S 665 mmHg 43%
    21:00 +26°C° 0 mm 3 m/S 665 mmHg 47%
    22:00 +25°C° 0 mm 3 m/S 665 mmHg 50%
    23:00 +22°C° 0 mm 3 m/S 664 mmHg 57%

    21 September, Samstag

    Zeit Temperatur Niederschläge Wind Luftdruck Luftfeuchtigkeit
    00:00 +21°C° 0 mm 3 m/S 664 mmHg 63%
    01:00 +20°C° 0 mm 3 m/S 664 mmHg 69%
    02:00 +20°C° 0 mm 3 m/S 664 mmHg 70%
    03:00 +19°C° 0 mm 3 m/S 664 mmHg 71%
    04:00 +19°C° 0 mm 3 m/S 664 mmHg 72%
    05:00 +19°C° 0 mm 3 m/S 664 mmHg 72%
    06:00 +19°C° 0 mm 3 m/S 665 mmHg 71%
    07:00 +19°C° 0 mm 3 m/S 665 mmHg 71%
    08:00 +22°C° 0 mm 3 m/S 666 mmHg 59%
    09:00 +26°C° 0 mm 3 m/S 666 mmHg 47%
    10:00 +29°C° 0 mm 3 m/S 667 mmHg 35%
    11:00 +31°C° 0 mm 3 m/S 666 mmHg 31%
    12:00 +34°C° 0 mm 3 m/S 666 mmHg 28%
    13:00 +36°C° 0 mm 2 m/S 665 mmHg 24%
    14:00 +36°C° 0 mm 2 m/S 665 mmHg 24%
    15:00 +35°C° 0 mm 2 m/S 665 mmHg 24%
    16:00 +35°C° 0 mm 2 m/S 664 mmHg 24%
    17:00 +32°C° 0 mm 2 m/S 664 mmHg 28%
    18:00 +30°C° 0 mm 3 m/S 664 mmHg 33%
    19:00 +28°C° 0 mm 3 m/S 664 mmHg 37%
    20:00 +27°C° 0 mm 3 m/S 664 mmHg 40%
    21:00 +25°C° 0 mm 3 m/S 664 mmHg 42%
    22:00 +24°C° 0 mm 2 m/S 664 mmHg 45%
    23:00 +22°C° 0 mm 3 m/S 664 mmHg 52%
    Mehr zeigen